Regional Weather Roundup
Issued by NWS Charleston, SC

Current Version | Previous Version | Text Only | Print | Product List | Glossary Off
Versions: 1 2 3 4 5 6 7 8 9 10 11 12 13 14 15 16 17 18 19 20 21 22 23 24 25 26 27 28 29 30 31 32 33 34 35 36 37 38 39 40 41 42 43 44 45 46 47 48 49 50
000 ASUS42 KCHS 290712 RWRCHS REGIONAL WEATHER ROUNDUP NATIONAL WEATHER SERVICE CHARLESTON SC 300 AM EDT FRI MAY 29 2015 NOTE: "FAIR" INDICATES FEW OR NO CLOUDS BELOW 12,000 FEET WITH NO SIGNIFICANT WEATHER AND/OR OBSTRUCTIONS TO VISIBILITY. NOT ALL STATIONS ARE QUALITY CONTROLLED BY THE NATIONAL WEATHER SERVICE. USE DATA WITH CAUTION...ESPECIALLY DEWPOINT OBSERVATIONS. SCZ027-030-031-034>040-042>050-290800- ...SOUTHEAST SOUTH CAROLINA... CITY SKY/WX TMP DP RH WIND PRES REMARKS N CHARLESTON PTCLDY 64 62 93 NE3 30.17F WATERFRONT PAR N/A 75 64 68 SE9 30.14F MOUNT PLEASANT LGT RAIN 64 63 94 CALM 30.17F JOHNS ISLAND SUNNY 64 63 94 CALM 30.17F PINOPOLIS N/A 72 64 78 CALM 30.10F MONCKS CORNER FAIR 63 59 88 CALM 30.18F SUMMERVILLE FAIR 61 61 100 CALM 30.18F BEAUFORT MCAS CLEAR 68 65 90 CALM 30.16F BEAUFORT ARPT FAIR 68 64 88 CALM 30.16F HILTON HEAD IS CLEAR 73 64 73 NE6 30.17F WALTERBORO SUNNY 59 57 94 CALM 30.18F ALLENDALE FAIR 66 64 94 CALM 30.16F ...SOUTHERN MIDLANDS AND PEE DEE... CITY SKY/WX TMP DP RH WIND PRES REMARKS GEORGETOWN NOT AVBL KINGSTREE NOT AVBL ORANGEBURG CLEAR 66 61 84 CALM 30.19F BARNWELL FAIR 66 64 94 CALM 30.18F AIKEN FAIR 66 61 82 CALM 30.22F MANNING FAIR 61 57 88 CALM 30.18F COLUMBIA PTCLDY 70 62 76 SE3 30.18F SUMTER CLEAR 67 63 87 SW2 30.17F FLORENCE CLEAR 66 62 87 CALM 30.18F MYRTLE BEACH CLEAR 66 61 82 CALM 30.21F N MYRTLE BEACH CLEAR 63 61 93 N3 30.19F $$ GAZ063-065-086>088-099>101-113>116-118-119-134>141-150-290800- ...SOUTHEAST GEORGIA... CITY SKY/WX TMP DP RH WIND PRES REMARKS SAVANNAH ARPT CLEAR 68 64 87 E5 30.15F HUNTER AAF CLEAR 66 65 96 CALM 30.13F FORT STEWART CLEAR 63 60 92 CALM 30.13F STATESBORO CLEAR 63 32 31 CALM 30.16F SYLVANIA SUNNY 65 64 98 CALM 30.17F CLAXTON FAIR 61 61 100 CALM 30.16F ...CSRA...CENTRAL AND FAR SOUTHEAST GEORGIA... CITY SKY/WX TMP DP RH WIND PRES REMARKS THOMSON CLEAR 71 68 90 CALM 30.21F AUGUSTA-BUSH MOCLDY 67 65 93 CALM 30.16F AUGUSTA-DANIEL CLEAR 71 63 75 E5 30.18F SWAINSBORO FAIR 70 68 94 E3 30.16F VIDALIA PTCLDY 66 64 94 E5 30.15F EASTMAN FAIR 68 67 99 SE5 30.16F HAZLEHURST FAIR 69 65 88 CALM 30.13F ALMA PTCLDY 61 59 93 E3 30.13F WAYCROSS CLEAR 63 62 97 CALM 30.13F JESUP FAIR 66 64 94 CALM 30.14F BAXLEY FAIR 63 63 100 CALM 30.14F BRUNSWICK N/A 64 61 88 CALM 30.14F SAINT SIMONS NOT AVBL $$ SCZ027-028-034-036>038-045-046-048>050-GAZ119-141-290800- ...LAKE AND SUPPLEMENTAL COASTAL OBSERVATIONS... STATION/POSITION TIME TEMP WIND PRES WAVE SWELL AIR SEA DIR/SP/G HT/PER HT/PER/DIR (UTC) (F) (DEG/KT/KT) (MB) (FT/S) (FT/S/D) UPR LAKE MARION NOT AVBL WINYAH BAY 0545 66 310/ 3 1022.0 LAKE MURRAY 0600 75 170/ 6/ 8 1021.7F ACE BASIN NERRS NOT AVBL FORT PULASKI 0600 76 79 90/ 9/ 11 1021.9F SAPELO ISLAND 0600 69 90/ 3 1021.0F $$ ANZ835-935-AMZ111-154-330-350-352-354-370-450-454-472-290800- ...C-MAN AND BUOY OBSERVATIONS... STATION/POSITION TIME TEMP WIND PRES WAVE SWELL AIR SEA DIR/SP/G HT/PER HT/PER/DIR (UTC) (F) (DEG/KT/KT) (MB) (FT/S) (FT/S/D) BUOY 41004 0650 76 79 100/ 8/ 10 1021.1F 4/ 8 3/ 8 BUOY 41008 0650 77 78 100/ 8/ 10 1020.7F 3/ 8 3/110/ 8 FOLLY BEACH CMAN 0700 75 120/ 9/ 10 1021.5F CAPERS NEARSHORE 0608 76 120/ 8/ 12 1022.4F FRIPP NEARSHORE 0600 76 90/ 10/ 12 1021.4F STATION/POSITION TIME TEMP WIND PRES WAVE SWELL AIR SEA DIR/SP/G HT/PER HT/PER/DIR (UTC) (F) (DEG/KT/KT) (MB) (FT/S) (FT/S/D) 5E ST. MARYS GA 0621 79 N/A 3/ 8 FRYING PAN BUOY 0650 76 76 60/ 6/ 8 1023.0F 3/ 8 3/140/ 8 BUOY 41025 0650 75 77 150/ 4/ 4 1023.0F 4/ 9 5/100/ 9 CAPE LOOKOUT NC 0700 72 CALM 1022.8F BUOY 41002 0650 74 74 70/ 12/ 14 1021.3F 6/ 9 5/ 80/ 9 BUOY 41010 0620 77 81 40/ 14/ 17 1019.3F ST AUGUSTINE FL 0700 76 78 80/ 11/ 13 1020.5F $$

USA.gov is the U.S. government's official web portal to all federal, state and local government web resources and services.